TimeCST,TemperatureF,Dew PointF,Humidity,Sea Level PressureIn,VisibilityMPH,Wind Direction,Wind SpeedMPH,Gust SpeedMPH,PrecipitationIn,Events,Conditions,WindDirDegrees,DateUTC
12:15 AM,39.4,6.4,26,30.15,10.0,South,8.1,-,N/A,,Clear,190,2013-02-19 06:15:00
12:35 AM,39.0,6.8,26,30.15,10.0,SSE,8.1,-,N/A,,Clear,150,2013-02-19 06:35:00
12:55 AM,39.9,7.0,26,30.16,10.0,South,6.9,-,N/A,,Clear,190,2013-02-19 06:55:00
1:15 AM,40.8,7.0,25,30.15,10.0,SSW,9.2,-,N/A,,Clear,210,2013-02-19 07:15:00
1:35 AM,41.7,7.0,24,30.15,10.0,SW,8.1,-,N/A,,Clear,220,2013-02-19 07:35:00
1:55 AM,41.7,7.5,25,30.14,10.0,Calm,Calm,-,N/A,,Clear,0,2013-02-19 07:55:00
2:15 AM,40.1,8.1,27,30.15,10.0,Calm,Calm,-,N/A,,Clear,0,2013-02-19 08:15:00
2:35 AM,40.3,8.8,27,30.15,10.0,Calm,Calm,-,N/A,,Clear,0,2013-02-19 08:35:00
2:55 AM,40.8,8.6,27,30.15,10.0,Calm,Calm,-,N/A,,Clear,0,2013-02-19 08:55:00
3:15 AM,42.1,8.4,25,30.15,10.0,Calm,Calm,-,N/A,,Clear,0,2013-02-19 09:15:00
3:35 AM,43.3,7.9,23,30.15,10.0,Calm,Calm,-,N/A,,Clear,0,2013-02-19 09:35:00
4:15 AM,41.2,8.8,26,30.15,10.0,Calm,Calm,-,N/A,,Clear,0,2013-02-19 10:15:00
4:35 AM,39.2,10.8,31,30.15,10.0,Calm,Calm,-,N/A,,Clear,0,2013-02-19 10:35:00
4:55 AM,40.5,12.7,32,30.16,10.0,Calm,Calm,-,N/A,,Clear,0,2013-02-19 10:55:00
5:15 AM,41.9,13.5,32,30.15,10.0,Calm,Calm,-,N/A,,Clear,0,2013-02-19 11:15:00
5:35 AM,42.6,15.1,33,30.14,10.0,SSE,5.8,-,N/A,,Clear,150,2013-02-19 11:35:00
5:55 AM,41.4,14.9,34,30.15,10.0,Calm,Calm,-,N/A,,Clear,0,2013-02-19 11:55:00
6:15 AM,40.6,14.4,34,30.15,10.0,WNW,4.6,-,N/A,,Clear,300,2013-02-19 12:15:00
6:35 AM,39.2,14.7,37,30.16,10.0,Calm,Calm,-,N/A,,Scattered Clouds,0,2013-02-19 12:35:00
6:55 AM,40.3,14.7,35,30.15,10.0,East,3.5,-,N/A,,Scattered Clouds,90,2013-02-19 12:55:00
7:15 AM,40.5,15.1,36,30.14,7.0,Calm,Calm,-,N/A,,Mostly Cloudy,0,2013-02-19 13:15:00
7:35 AM,42.1,14.7,33,30.15,10.0,South,4.6,-,N/A,,Scattered Clouds,180,2013-02-19 13:35:00
7:55 AM,43.0,15.4,33,30.15,10.0,SW,3.5,-,N/A,,Scattered Clouds,220,2013-02-19 13:55:00
8:15 AM,43.5,17.2,35,30.15,10.0,South,5.8,-,N/A,,Clear,190,2013-02-19 14:15:00
8:35 AM,45.0,18.3,35,30.15,10.0,SSE,6.9,-,N/A,,Clear,150,2013-02-19 14:35:00
9:15 AM,49.1,19.6,31,30.17,10.0,South,4.6,-,N/A,,Clear,170,2013-02-19 15:15:00
9:35 AM,50.9,19.6,29,30.18,10.0,Calm,Calm,-,N/A,,Scattered Clouds,0,2013-02-19 15:35:00
9:55 AM,51.3,20.1,29,30.17,10.0,East,5.8,-,N/A,,Scattered Clouds,90,2013-02-19 15:55:00
10:15 AM,51.8,21.0,30,30.17,10.0,ENE,3.5,-,N/A,,Mostly Cloudy,70,2013-02-19 16:15:00
10:35 AM,53.6,21.9,29,30.16,10.0,South,13.8,-,N/A,,Overcast,190,2013-02-19 16:35:00
10:55 AM,56.3,22.6,27,30.16,10.0,East,9.2,-,N/A,,Mostly Cloudy,80,2013-02-19 16:55:00
11:15 AM,57.2,22.8,27,30.16,10.0,SSE,3.5,-,N/A,,Scattered Clouds,150,2013-02-19 17:15:00
11:35 AM,59.5,23.7,25,30.16,10.0,SSE,12.7,-,N/A,,Mostly Cloudy,160,2013-02-19 17:35:00
11:55 AM,60.3,23.7,25,30.15,10.0,ESE,10.4,-,N/A,,Mostly Cloudy,120,2013-02-19 17:55:00
12:15 PM,59.5,23.5,25,30.14,10.0,ESE,10.4,16.1,N/A,,Mostly Cloudy,120,2013-02-19 18:15:00
12:35 PM,59.4,23.2,25,30.14,10.0,SE,11.5,-,N/A,,Mostly Cloudy,140,2013-02-19 18:35:00
12:55 PM,58.6,23.2,26,30.13,10.0,SSE,11.5,-,N/A,,Overcast,160,2013-02-19 18:55:00
1:15 PM,59.0,23.4,25,30.11,10.0,South,12.7,17.3,N/A,,Overcast,170,2013-02-19 19:15:00
1:35 PM,60.6,26.4,27,30.09,10.0,South,13.8,-,N/A,,Overcast,180,2013-02-19 19:35:00
1:55 PM,60.4,27.9,29,30.07,10.0,South,9.2,-,N/A,,Overcast,180,2013-02-19 19:55:00
2:15 PM,60.3,28.4,30,30.06,10.0,SE,5.8,-,N/A,,Overcast,130,2013-02-19 20:15:00
2:35 PM,61.0,28.9,30,30.05,10.0,SSE,5.8,-,N/A,,Overcast,160,2013-02-19 20:35:00
3:15 PM,59.2,24.6,27,30.02,10.0,ESE,13.8,-,N/A,,Mostly Cloudy,110,2013-02-19 21:15:00
3:35 PM,59.2,24.6,27,30.01,10.0,SE,11.5,18.4,N/A,,Mostly Cloudy,130,2013-02-19 21:35:00
3:55 PM,59.0,24.1,26,30.01,10.0,ESE,10.4,-,N/A,,Mostly Cloudy,120,2013-02-19 21:55:00
4:15 PM,58.5,23.9,26,30.00,10.0,SE,9.2,-,N/A,,Mostly Cloudy,130,2013-02-19 22:15:00
4:35 PM,58.3,23.7,26,30.01,10.0,SE,9.2,-,N/A,,Mostly Cloudy,130,2013-02-19 22:35:00
4:55 PM,57.9,23.5,27,30.02,10.0,SE,10.4,-,N/A,,Mostly Cloudy,130,2013-02-19 22:55:00
5:15 PM,57.0,23.4,27,30.02,10.0,East,4.6,-,N/A,,Scattered Clouds,90,2013-02-19 23:15:00
6:55 PM,50.5,23.5,35,30.09,10.0,NNE,3.5,-,N/A,,Overcast,20,2013-02-20 00:55:00
7:15 PM,49.6,23.7,36,30.10,10.0,Calm,Calm,-,N/A,,Mostly Cloudy,0,2013-02-20 01:15:00
7:35 PM,48.9,23.5,37,30.09,10.0,NE,4.6,-,N/A,,Mostly Cloudy,40,2013-02-20 01:35:00
7:55 PM,48.6,23.4,37,30.10,10.0,ENE,3.5,-,N/A,,Scattered Clouds,70,2013-02-20 01:55:00
8:15 PM,47.7,23.7,39,30.08,10.0,NE,5.8,-,N/A,,Scattered Clouds,40,2013-02-20 02:15:00
8:35 PM,46.8,23.9,41,30.08,10.0,ENE,3.5,-,N/A,,Clear,70,2013-02-20 02:35:00
9:15 PM,46.2,25.5,44,30.07,10.0,Calm,Calm,-,N/A,,Scattered Clouds,0,2013-02-20 03:15:00
9:35 PM,45.1,25.3,46,30.05,10.0,Calm,Calm,-,N/A,,Scattered Clouds,0,2013-02-20 03:35:00
9:55 PM,44.6,25.3,47,30.05,10.0,Calm,Calm,-,N/A,,Scattered Clouds,0,2013-02-20 03:55:00
10:15 PM,43.7,25.3,48,30.04,10.0,NE,4.6,-,N/A,,Clear,40,2013-02-20 04:15:00
10:35 PM,42.4,25.3,51,30.04,10.0,North,3.5,-,N/A,,Clear,360,2013-02-20 04:35:00
10:55 PM,41.7,25.2,52,30.04,10.0,Calm,Calm,-,N/A,,Clear,0,2013-02-20 04:55:00
11:15 PM,41.2,25.7,54,30.04,10.0,Calm,Calm,-,N/A,,Scattered Clouds,0,2013-02-20 05:15:00
11:35 PM,42.6,27.3,55,30.05,10.0,Calm,Calm,-,N/A,,Scattered Clouds,0,2013-02-20 05:35:00
11:55 PM,43.0,28.0,56,30.04,10.0,Calm,Calm,-,N/A,,Scattered Clouds,0,2013-02-20 05:55:00